Vertical_Velocity
-4 -1 0 -2 -0 -4 -1 -2 -5 -2 -0 -1 -3 -2 1 2 1 -0 0 1 -2 -0 0 2 1 1 -0 -1 -1 -1 2 9
-3 1 3 -0 -2 3 -1 -4 -2 -1 -2 1 1 2 2 2 -0 -2 -2 -2 1 1 -3 -4 -1 -0 -0 2 3 7 -3 -0
-1 1 -0 -1 -2 2 -1 -1 1 3 3 0 0 3 2 -0 0 -0 -2 -1 -1 -0 3 1 -0 -0 3 -1 -4 -3 2 5
-4 -3 -2 -2 -1 1 3 1 -0 0 -0 1 2 -0 -0 1 1 2 2 -1 -2 -2 -2 -1 -0 1 1 -1 4 0 1 -5
-5 -1 -4 -4 -3 -1 -1 1 1 -0 2 1 1 1 1 1 0 0 0 1 2 0 -2 -3 -4 -5 0 0 1 7 5 1
-5 -5 -4 -2 -1 1 0 1 2 1 -1 -2 -1 2 1 0 1 2 -1 -2 -1 -3 -1 0 -1 -0 -3 -10 -5 -7 -7 -4
1 3 -0 3 3 1 -1 0 -1 -1 1 -1 -1 -0 3 2 1 0 0 -2 -2 -2 -3 -4 -4 -5 -4 -1 -5 -0 -2 -3
-1 -0 1 1 -2 -3 -3 -2 -2 -3 -3 -1 -2 -3 -1 -0 0 0 0 2 1 2 2 0 -2 -1 -2 -1 1 -2 -2 2
-0 -0 2 1 -3 -3 -2 -2 -1 -0 -3 -4 -3 -0 -1 -0 0 -1 -2 -2 -1 0 1 2 3 3 0 -2 -1 -1 0 -0
0 1 1 -3 -1 1 0 -2 -2 -1 -0 -1 -2 -1 -2 -3 -1 2 1 -0 -1 -1 -3 -3 -2 0 1 -0 -1 -1 0 2
5 2 -3 -2 -2 -1 -1 -2 -2 -1 1 -0 -1 -2 -2 -3 -3 -1 -1 -2 -0 1 -0 -0 -1 -1 -0 2 3 3 2 -0
3 3 1 1 1 -2 -2 -1 -0 1 2 3 3 1 -0 0 -0 -1 -1 -4 -3 -2 -2 -0 -2 -3 -3 -2 -1 -1 -2 -1
4 -0 1 -0 0 -2 -3 -4 -4 -2 -1 -1 0 1 1 1 3 3 1 -2 -3 -3 -1 -1 -4 -2 -4 1 -4 -3 -3 -2
5 5 1 0 -2 -1 -2 -4 -6 -4 -2 -3 -4 -3 -6 -8 -3 -3 -2 -2 -2 -3 -4 -4 -1 -1 -6 -4 -12 -1 0 3
4 -2 1 1 -2 -1 -5 -5 -4 -1 -0 2 6 4 3 -2 -5 -4 -3 -2 -2 -0 -4 -6 -3 -2 -1 2 -7 -11 -7 6
0 1 6 4 4 3 -2 -0 -6 -1 -4 -1 3 5 3 1 3 4 4 0 0 3 -3 -6 -10 -11 -11 -6 -6 -8 -9 -21
-4 -7 -6 1 3 -2 1 -1 -2 3 4 3 4 2 1 2 2 4 3 8 4 -1 -2 -2 -1 1 2 0 -4 -4 -3 -8
-8 -4 -4 -2 -1 -3 -2 -5 1 -5 -1 -10 -5 -2 0 2 0 0 1 5 1 2 2 7 2 3 -2 2 2 -0 -0 -4
1 3 4 1 1 -2 -5 -10 -10 -9 -4 -4 -2 -1 -2 -0 9 5 7 5 3 1 10 5 4 8 8 7 17 19 6 8
7 5 2 3 2 -1 1 2 1 3 -1 -0 2 2 -0 -5 3 1 -3 15 -3 12 6 12 37 32 20 14 -2 3 4 3
Height
3162 3161 3161 3160 3160 3159 3156 3154 3153 3152 3150 3148 3147 3146 3145 3144 3144 3143 3142 3141 3140 3139 3138 3137 3136 3137 3137 3136 3134 3134 3134 3134
3160 3160 3160 3160 3159 3157 3153 3151 3149 3148 3148 3148 3146 3145 3144 3143 3142 3141 3140 3140 3138 3136 3134 3134 3133 3133 3132 3132 3132 3131 3130 3131
3158 3158 3157 3156 3155 3153 3150 3149 3147 3146 3145 3145 3143 3142 3141 3140 3139 3139 3138 3137 3136 3134 3132 3131 3130 3129 3128 3127 3128 3128 3128 3129
3155 3154 3154 3153 3152 3151 3150 3149 3147 3145 3145 3144 3142 3141 3140 3139 3138 3137 3137 3135 3134 3133 3131 3130 3128 3127 3126 3125 3123 3124 3124 3126
3152 3151 3152 3152 3151 3150 3148 3147 3146 3144 3143 3141 3140 3139 3138 3137 3137 3136 3135 3133 3131 3130 3129 3127 3126 3125 3124 3123 3123 3122 3121 3122
3151 3151 3151 3151 3149 3147 3146 3145 3144 3142 3141 3139 3138 3136 3135 3133 3132 3131 3129 3128 3127 3126 3125 3124 3122 3121 3120 3119 3118 3117 3116 3114
3152 3152 3150 3149 3147 3145 3144 3143 3141 3138 3136 3135 3133 3132 3130 3128 3126 3125 3124 3123 3121 3120 3118 3118 3116 3115 3113 3113 3112 3111 3110 3109
3152 3150 3149 3147 3144 3142 3140 3138 3136 3134 3132 3129 3127 3125 3123 3121 3119 3118 3116 3115 3114 3113 3112 3111 3110 3109 3107 3106 3105 3105 3104 3101
3150 3149 3147 3145 3141 3138 3136 3133 3131 3128 3126 3124 3121 3118 3116 3114 3113 3112 3110 3108 3107 3106 3105 3104 3103 3102 3101 3100 3099 3098 3097 3096
3148 3147 3145 3142 3139 3137 3134 3131 3129 3125 3122 3119 3115 3112 3109 3107 3105 3103 3102 3100 3099 3098 3097 3096 3095 3094 3093 3092 3092 3090 3089 3088
3146 3145 3142 3138 3135 3133 3130 3128 3125 3122 3119 3115 3110 3106 3103 3100 3098 3096 3094 3093 3092 3090 3089 3087 3086 3086 3085 3084 3083 3082 3081 3080
3144 3141 3138 3135 3131 3128 3126 3123 3120 3117 3114 3110 3106 3102 3098 3094 3092 3089 3086 3085 3085 3083 3081 3079 3078 3077 3076 3076 3075 3074 3073 3072
3140 3137 3134 3131 3126 3123 3121 3118 3115 3111 3106 3103 3100 3096 3092 3088 3086 3083 3079 3076 3075 3074 3072 3071 3070 3068 3066 3066 3066 3065 3065 3062
3136 3133 3130 3126 3123 3119 3116 3113 3110 3105 3099 3094 3090 3087 3085 3082 3079 3076 3072 3068 3065 3063 3061 3060 3060 3059 3056 3055 3053 3055 3054 3054
3133 3131 3125 3120 3115 3112 3108 3105 3101 3097 3093 3087 3083 3078 3075 3071 3068 3065 3062 3059 3056 3052 3050 3049 3049 3049 3046 3045 3041 3039 3041 3043
3126 3123 3120 3116 3111 3106 3101 3096 3091 3086 3082 3079 3076 3072 3067 3062 3058 3055 3052 3049 3045 3042 3039 3036 3036 3036 3035 3033 3031 3028 3025 3023
3121 3117 3113 3108 3104 3099 3094 3088 3083 3078 3074 3069 3065 3062 3056 3051 3049 3046 3043 3039 3034 3030 3027 3024 3022 3021 3020 3019 3019 3017 3014 3011
3113 3109 3105 3101 3097 3092 3086 3080 3076 3070 3065 3060 3056 3051 3047 3041 3037 3034 3031 3027 3022 3018 3016 3012 3011 3008 3006 3007 3006 3004 3002 3002
3105 3101 3097 3093 3088 3083 3079 3074 3067 3060 3055 3049 3043 3037 3032 3028 3025 3021 3019 3016 3012 3009 3003 3003 2999 2995 2996 2996 2994 2993 2992 2990
3099 3094 3089 3085 3080 3074 3068 3062 3056 3050 3043 3037 3031 3024 3018 3013 3009 3005 3005 3002 2999 2992 2992 2991 2987 2988 2986 2984 2984 2984 2981 2979